| time (UTC) | temp F | wind direction | speed MPH | gust MPH | rain 1hr in | rain 24hr in | rain mn in | humidity % | barometer mb |
| 20260507162031 | 43 | 330 | 12.0 | 0.0 | 0.00 | 0.00 | 0.00 | 99 | |
| 20260507151728 | 45 | 340 | 10.0 | 0.0 | 0.00 | 0.00 | 0.00 | 99 | |
| 20260507141729 | 45 | 330 | 12.0 | 0.0 | 0.00 | 0.00 | 0.00 | 99 | |
| 20260507131829 | 46 | 20 | 6.0 | 0.0 | 0.00 | 0.00 | 0.00 | 99 | |
| 20260507121729 | 46 | 10 | 6.0 | 0.0 | 0.00 | 0.00 | 0.00 | 99 | |
| 20260507111729 | 46 | 340 | 6.0 | 0.0 | 0.00 | 0.00 | 0.00 | 99 | |
| 20260507101928 | 46 | 320 | 5.0 | 0.0 | 0.00 | 0.00 | 0.00 | 99 | |
| 20260507091729 | 46 | 20 | 5.0 | 0.0 | 0.00 | 0.00 | 0.00 | 99 | |
| 20260507081729 | 46 | 30 | 3.0 | 0.0 | 0.00 | 0.00 | 0.00 | 99 | |
| 20260507071728 | 46 | 350 | 3.0 | 0.0 | 0.00 | 0.00 | 0.00 | 99 | |
| 20260507061728 | 46 | 10 | 5.0 | 0.0 | 0.00 | 0.00 | 0.00 | 99 | |
| 20260507051728 | 46 | 350 | 2.0 | 0.0 | 0.00 | 0.00 | 0.00 | 99 | |
| 20260507041930 | 46 | 30 | 2.0 | 0.0 | 0.00 | 0.00 | 0.00 | 99 | |
| 20260507031728 | 46 | 290 | 3.0 | 0.0 | 0.00 | 0.00 | 0.00 | 99 | |
| 20260507021727 | 46 | 100 | 3.0 | 0.0 | 0.00 | 0.00 | 0.00 | 99 | |
| 20260507011827 | 46 | 350 | 6.0 | 0.0 | 0.00 | 0.00 | 0.00 | 99 | |
| 20260507001729 | 46 | 10 | 6.0 | 0.0 | 0.00 | 0.00 | 0.00 | 99 | |
| 20260506231728 | 48 | 320 | 6.0 | 0.0 | 0.00 | 0.00 | 0.00 | 99 | |
| 20260506221929 | 50 | 20 | 3.0 | 0.0 | 0.00 | 0.00 | 0.00 | 99 | |
| 20260506211728 | 50 | 10 | 7.0 | 0.0 | 0.00 | 0.00 | 0.00 | 99 | |
| 20260506201729 | 50 | 10 | 8.0 | 0.0 | 0.00 | 0.00 | 0.00 | 99 | |
| 20260506191801 | 52 | 10 | 6.0 | 0.0 | 0.00 | 0.00 | 0.00 | 93 | |
| 20260506181801 | 55 | 20 | 3.0 | 0.0 | 0.00 | 0.00 | 0.00 | 87 | |
| 20260506171728 | 57 | 0 | 0.0 | 0.0 | 0.00 | 0.00 | 0.00 | 76 |